Bookmark and Share
Track history (hours):
 

Orange8

Last reported at 2014-Apr-20 12:30 UTC. Time now 2014-Apr-20 13:30 UTC.
Position N 34°37' E 135°26'.

Length 164 m; draft 5 m.

Type: Passenger vessel. MMSI: 431501603.

NotesDate/timePositionNaut miles runAvg speedWind from/ knotsBaromVisibWave heightAir tempDewpointWater temp
2014-Apr-20 12:30N 34°37' E 135°26'0 0.0
2014-Apr-20 11:30N 34°37' E 135°26'0 0.0
2014-Apr-20 10:30N 34°37' E 135°26'0 0.0
2014-Apr-20 09:30N 34°37' E 135°26'0 0.0
2014-Apr-20 08:24N 34°37' E 135°26'0 0.0
2014-Apr-20 07:24N 34°37' E 135°26'0 0.0
2014-Apr-20 06:30N 34°37' E 135°26'0 0.0
2014-Apr-20 05:30N 34°37' E 135°26'0 0.0
2014-Apr-20 04:30N 34°37' E 135°26'0 0.0
2014-Apr-20 03:30N 34°37' E 135°26'0 0.0
2014-Apr-20 02:30N 34°37' E 135°26'0 0.0
2014-Apr-20 01:30N 34°37' E 135°26'0 0.0
2014-Apr-20 00:06N 34°37' E 135°26'0 0.0
2014-Apr-19 23:24N 34°37' E 135°26'0 0.0
2014-Apr-19 22:30N 34°37' E 135°26'0 0.0
2014-Apr-19 21:30N 34°37' E 135°26'6 6.5
2014-Apr-19 20:33N 34°36' E 135°19'1818.4
2014-Apr-19 19:33N 34°36' E 134°56'1 0.0
2014-Apr-18 14:33N 34°37' E 134°56'1919.1
2014-Apr-18 13:33N 34°37' E 135°19'6 5.4
2014-Apr-18 12:30N 34°37' E 135°26'0 0.0
2014-Apr-18 11:30N 34°37' E 135°26'0 0.0
2014-Apr-18 10:30N 34°37' E 135°26'0 0.0
2014-Apr-18 09:30N 34°37' E 135°26'0 0.0
2014-Apr-18 08:30N 34°37' E 135°26'0 0.0
2014-Apr-18 07:24N 34°37' E 135°26'0 0.0
2014-Apr-18 06:30N 34°37' E 135°26'0 0.0
2014-Apr-18 05:30N 34°37' E 135°26'0 0.0
2014-Apr-18 04:30N 34°37' E 135°26'0 0.0
2014-Apr-18 03:30N 34°37' E 135°26'0 0.0
2014-Apr-18 02:30N 34°37' E 135°26'0 0.0
2014-Apr-18 01:30N 34°37' E 135°26'0 0.0
2014-Apr-18 00:30N 34°37' E 135°26'0 0.0
2014-Apr-17 23:18N 34°37' E 135°26'0 0.0
2014-Apr-17 22:06N 34°37' E 135°26'0 0.0
2014-Apr-17 21:30N 34°37' E 135°26'7 7.5
2014-Apr-17 20:33N 34°35' E 135°18'1818.4
2014-Apr-17 19:33N 34°36' E 134°55'1 0.0
2014-Apr-16 14:33N 34°37' E 134°56'1818.5
2014-Apr-16 13:33N 34°37' E 135°19'6 5.4
2014-Apr-16 12:28N 34°37' E 135°26'0 0.0
2014-Apr-16 11:28N 34°37' E 135°26'0 0.0
2014-Apr-16 10:22N 34°37' E 135°26'0 0.0
2014-Apr-16 09:16N 34°37' E 135°26'0 0.0
2014-Apr-16 08:22N 34°37' E 135°26'0 0.0
2014-Apr-16 07:28N 34°37' E 135°26'0 0.0
2014-Apr-16 06:22N 34°37' E 135°26'0 0.0
2014-Apr-16 05:28N 34°37' E 135°26'0 0.0
2014-Apr-16 04:28N 34°37' E 135°26'0 0.0
2014-Apr-16 03:28N 34°37' E 135°26'0 0.0
2014-Apr-16 02:28N 34°37' E 135°26'0 0.0
2014-Apr-16 01:28N 34°37' E 135°26'0 0.0
2014-Apr-16 00:28N 34°37' E 135°26'0 0.0
2014-Apr-15 23:22N 34°37' E 135°26'0 0.0
2014-Apr-15 22:16N 34°37' E 135°26'0 0.0
2014-Apr-15 21:28N 34°37' E 135°26'6 6.4
2014-Apr-15 20:33N 34°36' E 135°19'1917.6
2014-Apr-15 19:30N 34°36' E 134°56'1 0.0
2014-Apr-14 13:34N 34°37' E 134°57'2411.8
2014-Apr-14 11:32N 34°37' E 135°26'0 0.0
2014-Apr-14 09:32N 34°37' E 135°26'0 0.0
2014-Apr-14 08:32N 34°37' E 135°26'0 0.0
2014-Apr-14 07:32N 34°37' E 135°26'0 0.0
2014-Apr-14 05:32N 34°37' E 135°26'0 0.0
2014-Apr-13 22:20N 34°37' E 135°26'0 0.0
2014-Apr-13 21:32N 34°37' E 135°26'6 6.4
2014-Apr-13 20:34N 34°35' E 135°19'1817.8
2014-Apr-13 19:33N 34°36' E 134°57'13 0.5
2014-Apr-12 15:21N 34°31' E 134°42'1418.3
2014-Apr-12 14:34N 34°37' E 134°58'1818.0
2014-Apr-12 13:33N 34°36' E 135°20'5 4.9
2014-Apr-12 12:30N 34°37' E 135°26'0 0.0
2014-Apr-12 11:24N 34°37' E 135°26'0 0.0
2014-Apr-12 10:30N 34°37' E 135°26'0 0.0
2014-Apr-12 09:24N 34°37' E 135°26'0 0.0
2014-Apr-12 08:30N 34°37' E 135°26'0 0.0
2014-Apr-12 07:30N 34°37' E 135°26'0 0.0
2014-Apr-12 06:24N 34°37' E 135°26'0 0.0
2014-Apr-12 05:30N 34°37' E 135°26'0 0.0
2014-Apr-12 04:30N 34°37' E 135°26'0 0.0
2014-Apr-12 03:30N 34°37' E 135°26'0 0.0
2014-Apr-12 02:18N 34°37' E 135°26'0 0.0
2014-Apr-12 01:18N 34°37' E 135°26'0 0.0
2014-Apr-12 00:30N 34°37' E 135°26'0 0.0
2014-Apr-11 23:30N 34°37' E 135°26'0 0.0
2014-Apr-11 21:30N 34°37' E 135°26'6 6.1
2014-Apr-11 20:33N 34°36' E 135°19'1817.6
2014-Apr-11 19:33N 34°36' E 134°58'1 0.0
2014-Apr-10 14:33N 34°37' E 134°57'1817.9
2014-Apr-10 13:33N 34°37' E 135°19'6 5.6
2014-Apr-10 12:31N 34°37' E 135°26'  

Dump ship's entire track history

sailing weather and tide predictions

Orange8 — JL6278 — position and weather